Redmond, OR

1:13 PM PDT on July 23, 2017 (GMT -0700)
Roberts Field Airport

Weather History for KRDM - January, 2013

Change the Weather History Date:

Monday, January 14, 2013

  Actual Average Record
Temperature  
Mean Temperature 20 °F 33 °F  
Max Temperature 38 °F 42 °F 62 °F (2009)
Min Temperature 1 °F 23 °F 1 °F (2013)
Degree Days  
Heating Degree Days 45 32  
Month to date heating degree days 580 465  
Since 1 July heating degree days 3138 3305  
Cooling Degree Days 0 0  
Month to date cooling degree days 0 0  
Year to date cooling degree days 0 0  
Moisture  
Dew Point 7 °F    
Average Humidity 59    
Maximum Humidity 86    
Minimum Humidity 32    
Precipitation  
Precipitation 0.00 in 0.04 in 1.02 in (1956)
Month to date precipitation 0.15 0.49  
Year to date precipitation 0.15 0.49  
Sea Level Pressure  
Sea Level Pressure 30.47 in    
Wind  
Wind Speed 3 mph (ESE)    
Max Wind Speed 8 mph    
Max Gust Speed 9 mph    
Visibility 10 miles    
Events      
T = Trace of Precipitation, MM = Missing Value Source: NWS Daily Summary

Daily Weather History Graph

Daily Weather History Graph

Search for Another Location

Airport or City:

Trip Planner

Search our weather history database for the weather conditions in past years. The results will help you decide how hot, cold, wet, or windy it might be!

Date:

Astronomy

Jan. 14, 2013 Rise Set
Actual Time 7:37 AM PST 4:50 PM PST
Civil Twilight 7:04 AM PST 5:23 PM PST
Nautical Twilight 6:29 AM PST 5:59 PM PST
Astronomical Twilight 5:54 AM PST 6:33 PM PST
Moon 9:04 AM PST (1/14) 8:52 PM PST (1/14)
Length of Visible Light 10h 18m
Length of Day
9h 13m
Waxing Crescent, 12% of the Moon is Illuminated
Jan 14
Waxing Crescent
Jan 18
First Quarter
Jan 26
Full
Feb 3
Last Quarter
Feb 9
New

Hourly Weather History & Observations

Time (PST) Temp. Windchill Dew Point Humidity Pressure Visibility Wind Dir Wind Speed Gust Speed Precip Events Conditions
12:56 AM 7.0 °F -4.5 °F 1.0 °F 77% 30.47 in 10.0 mi SSE 6.9 mph - N/A   Clear
1:56 AM 3.9 °F -3.4 °F -0.0 °F 84% 30.48 in 10.0 mi SE 3.5 mph - N/A   Clear
2:56 AM 8.1 °F -0.5 °F 1.9 °F 76% 30.47 in 10.0 mi East 4.6 mph - N/A   Clear
3:56 AM 6.1 °F - 1.0 °F 80% 30.48 in 10.0 mi Calm Calm - N/A   Clear
4:56 AM 3.9 °F - -0.9 °F 80% 30.48 in 10.0 mi Calm Calm - N/A   Clear
5:56 AM 7.0 °F 0.1 °F 1.0 °F 77% 30.49 in 10.0 mi ENE 3.5 mph - N/A   Clear
6:56 AM 5.0 °F -2.1 °F -0.0 °F 80% 30.52 in 10.0 mi ESE 3.5 mph - N/A   Clear
7:56 AM 6.1 °F -0.9 °F 1.0 °F 80% 30.53 in 10.0 mi ESE 3.5 mph - N/A   Partly Cloudy
8:56 AM 16.0 °F - 6.1 °F 65% 30.49 in 10.0 mi Calm Calm - N/A   Clear
9:56 AM 21.0 °F - 7.0 °F 55% 30.48 in 10.0 mi Calm Calm - N/A   Clear
10:56 AM 25.0 °F 20.7 °F 8.1 °F 49% 30.46 in 10.0 mi SSE 3.5 mph - N/A   Mostly Cloudy
11:56 AM 30.0 °F 24.1 °F 8.1 °F 40% 30.41 in 10.0 mi SE 5.8 mph - N/A   Mostly Cloudy
12:56 PM 33.1 °F 28.7 °F 10.0 °F 38% 30.40 in 10.0 mi ESE 4.6 mph - N/A   Clear
1:56 PM 36.0 °F 32.1 °F 10.9 °F 36% 30.39 in 10.0 mi East 4.6 mph - N/A   Clear
2:56 PM 37.9 °F 35.5 °F 10.9 °F 33% 30.40 in 10.0 mi ENE 3.5 mph - N/A   Clear
3:56 PM 37.9 °F 35.5 °F 12.0 °F 35% 30.42 in 10.0 mi ENE 3.5 mph - N/A   Clear
4:56 PM 30.9 °F - 12.0 °F 46% 30.44 in 10.0 mi Calm Calm - N/A   Clear
5:56 PM 25.0 °F - 14.0 °F 63% 30.47 in 10.0 mi Calm Calm - N/A   Clear
6:56 PM 21.0 °F - 10.9 °F 65% 30.50 in 10.0 mi Calm Calm - N/A   Clear
7:56 PM 19.0 °F - 10.9 °F 71% 30.51 in 10.0 mi Calm Calm - N/A   Clear
8:56 PM 21.0 °F 16.2 °F 12.0 °F 68% 30.49 in 10.0 mi South 3.5 mph - N/A   Clear
9:56 PM 19.9 °F 12.1 °F 12.0 °F 71% 30.48 in 10.0 mi South 5.8 mph - N/A   Clear
10:56 PM 19.9 °F 12.1 °F 12.0 °F 71% 30.49 in 10.0 mi SSE 5.8 mph - N/A   Clear
11:56 PM 19.9 °F 14.9 °F 12.0 °F 71% 30.49 in 10.0 mi SE 3.5 mph - N/A   Clear